| time (UTC) | temp C | wind direction | speed KPH | gust KPH | rain 1hr cm | rain 24hr cm | rain mn cm | humidity % | barometer mb |
| 20260508213016 | 22 | 336 | 3.2 | 11.3 | 0.00 | 0.00 | 0.00 | 24 | 1008.6 |
| 20260508211541 | 22 | 326 | 3.2 | 12.9 | 0.00 | 0.00 | 0.00 | 28 | 1008.9 |
| 20260508210009 | 22 | 242 | 1.6 | 6.4 | 0.00 | 0.00 | 0.00 | 33 | 1009.0 |
| 20260508204541 | 21 | 180 | 3.2 | 12.9 | 0.00 | 0.00 | 0.00 | 27 | 1009.2 |
| 20260508203014 | 22 | 266 | 3.2 | 9.7 | 0.00 | 0.00 | 0.00 | 31 | 1009.2 |
| 20260508201536 | 22 | 244 | 4.8 | 11.3 | 0.00 | 0.00 | 0.00 | 26 | 1009.3 |
| 20260508200005 | 21 | 316 | 6.4 | 14.5 | 0.00 | 0.00 | 0.00 | 25 | 1009.4 |
| 20260508194535 | 21 | 340 | 4.8 | 12.9 | 0.00 | 0.00 | 0.00 | 25 | 1009.4 |
| 20260508193003 | 22 | 263 | 3.2 | 14.5 | 0.00 | 0.00 | 0.00 | 28 | 1009.5 |
| 20260508191546 | 21 | 240 | 4.8 | 12.9 | 0.00 | 0.00 | 0.00 | 26 | 1009.6 |
| 20260508190009 | 21 | 40 | 3.2 | 11.3 | 0.00 | 0.00 | 0.00 | 30 | 1009.6 |
| 20260508184536 | 21 | 268 | 3.2 | 11.3 | 0.00 | 0.00 | 0.00 | 39 | 1009.7 |
| 20260508183001 | 21 | 189 | 0.0 | 8.0 | 0.00 | 0.00 | 0.00 | 35 | 1009.8 |
| 20260508181531 | 20 | 202 | 1.6 | 6.4 | 0.00 | 0.00 | 0.00 | 36 | 1010.0 |
| 20260508180116 | 20 | 199 | 0.0 | 6.4 | 0.00 | 0.00 | 0.00 | 35 | 1010.2 |
| 20260508174534 | 19 | 231 | 1.6 | 8.0 | 0.00 | 0.00 | 0.00 | 34 | 1010.3 |
| 20260508173059 | 19 | 190 | 1.6 | 4.8 | 0.00 | 0.00 | 0.00 | 35 | 1010.3 |
| 20260508171527 | 19 | 215 | 1.6 | 4.8 | 0.00 | 0.00 | 0.00 | 38 | 1010.4 |
| 20260508170106 | 18 | 312 | 1.6 | 6.4 | 0.00 | 0.00 | 0.00 | 32 | 1010.4 |
| 20260508164534 | 18 | 239 | 1.6 | 6.4 | 0.00 | 0.00 | 0.00 | 37 | 1010.5 |
| 20260508163054 | 18 | 246 | 1.6 | 4.8 | 0.00 | 0.00 | 0.00 | 37 | 1010.5 |
| 20260508161522 | 17 | 204 | 0.0 | 4.8 | 0.00 | 0.00 | 0.00 | 39 | 1010.4 |
| 20260508160053 | 17 | 126 | 0.0 | 8.0 | 0.00 | 0.00 | 0.00 | 37 | 1010.5 |
| 20260508154521 | 16 | 105 | 0.0 | 3.2 | 0.00 | 0.00 | 0.00 | 41 | 1010.5 |
| 20260508153056 | 16 | 246 | 0.0 | 3.2 | 0.00 | 0.00 | 0.00 | 36 | 1010.4 |
| 20260508151520 | 15 | 94 | 0.0 | 4.8 | 0.00 | 0.00 | 0.00 | 46 | 1010.4 |
| 20260508150050 | 15 | 210 | 0.0 | 3.2 | 0.00 | 0.00 | 0.00 | 50 | 1010.2 |
| 20260508144526 | 15 | 145 | 0.0 | 3.2 | 0.00 | 0.00 | 0.00 | 48 | 1010.1 |
| 20260508143054 | 15 | 241 | 3.2 | 8.0 | 0.00 | 0.00 | 0.00 | 45 | 1010.1 |
| 20260508141514 | 16 | 348 | 0.0 | 3.2 | 0.00 | 0.00 | 0.00 | 35 | 1009.9 |
| 20260508140045 | 14 | 9 | 1.6 | 4.8 | 0.00 | 0.00 | 0.00 | 41 | 1009.8 |
| 20260508134512 | 13 | 5 | 1.6 | 4.8 | 0.00 | 0.00 | 0.00 | 43 | 1009.6 |
| 20260508133042 | 12 | 355 | 1.6 | 4.8 | 0.00 | 0.00 | 0.00 | 43 | 1009.5 |
| 20260508131511 | 12 | 360 | 1.6 | 3.2 | 0.00 | 0.00 | 0.00 | 43 | 1009.3 |
| 20260508130041 | 12 | 344 | 1.6 | 4.8 | 0.00 | 0.00 | 0.00 | 42 | 1009.1 |
| 20260508124507 | 12 | 23 | 1.6 | 4.8 | 0.00 | 0.00 | 0.00 | 41 | 1008.9 |
| 20260508123038 | 12 | 11 | 1.6 | 4.8 | 0.00 | 0.00 | 0.00 | 42 | 1008.8 |
| 20260508121506 | 12 | 9 | 1.6 | 6.4 | 0.00 | 0.00 | 0.00 | 43 | 1008.7 |
| 20260508120047 | 12 | 9 | 0.0 | 4.8 | 0.00 | 0.00 | 0.00 | 43 | 1008.7 |
| 20260508114502 | 12 | 5 | 0.0 | 4.8 | 0.00 | 0.00 | 0.00 | 42 | 1008.5 |
| 20260508113031 | 12 | 5 | 0.0 | 3.2 | 0.00 | 0.00 | 0.00 | 42 | 1008.4 |
| 20260508111501 | 12 | 10 | 0.0 | 3.2 | 0.00 | 0.00 | 0.00 | 41 | 1008.4 |
| 20260508110033 | 12 | 9 | 0.0 | 3.2 | 0.00 | 0.00 | 0.00 | 41 | 1008.3 |
| 20260508104601 | 12 | 13 | 1.6 | 4.8 | 0.00 | 0.00 | 0.00 | 41 | 1008.3 |
| 20260508103039 | 12 | 5 | 1.6 | 4.8 | 0.00 | 0.00 | 0.00 | 40 | 1008.2 |
| 20260508101601 | 14 | 355 | 0.0 | 4.8 | 0.00 | 0.00 | 0.00 | 35 | 1008.1 |
| 20260508100029 | 15 | 340 | 0.0 | 4.8 | 0.00 | 0.00 | 0.00 | 35 | 1008.0 |
| 20260508094600 | 13 | 24 | 0.0 | 3.2 | 0.00 | 0.00 | 0.00 | 37 | 1008.0 |
| 20260508093037 | 13 | 21 | 0.0 | 4.8 | 0.00 | 0.00 | 0.00 | 35 | 1008.0 |
| 20260508091558 | 14 | 45 | 3.2 | 6.4 | 0.00 | 0.00 | 0.00 | 35 | 1008.1 |
| 20260508090027 | 13 | 5 | 0.0 | 8.0 | 0.00 | 0.00 | 0.00 | 40 | 1008.1 |
| 20260508084559 | 12 | 18 | 0.0 | 3.2 | 0.00 | 0.00 | 0.00 | 41 | 1008.1 |
| 20260508083024 | 13 | 9 | 3.2 | 4.8 | 0.00 | 0.00 | 0.00 | 39 | 1008.2 |
| 20260508081602 | 13 | 23 | 3.2 | 4.8 | 0.00 | 0.00 | 0.00 | 40 | 1008.2 |
| 20260508080023 | 13 | 10 | 1.6 | 4.8 | 0.00 | 0.00 | 0.00 | 41 | 1008.1 |
| 20260508074551 | 13 | 348 | 0.0 | 3.2 | 0.00 | 0.00 | 0.00 | 42 | 1008.1 |
| 20260508073021 | 13 | 5 | 0.0 | 4.8 | 0.00 | 0.00 | 0.00 | 42 | 1008.0 |
| 20260508071548 | 14 | 34 | 1.6 | 4.8 | 0.00 | 0.00 | 0.00 | 40 | 1008.0 |
| 20260508070017 | 13 | 14 | 0.0 | 4.8 | 0.00 | 0.00 | 0.00 | 43 | 1008.0 |
| 20260508064547 | 13 | 9 | 0.0 | 3.2 | 0.00 | 0.00 | 0.00 | 45 | 1008.0 |
| 20260508063015 | 13 | 9 | 1.6 | 4.8 | 0.00 | 0.00 | 0.00 | 44 | 1007.9 |
| 20260508061542 | 14 | 15 | 1.6 | 4.8 | 0.00 | 0.00 | 0.00 | 43 | 1007.9 |
| 20260508060011 | 14 | 17 | 3.2 | 4.8 | 0.00 | 0.00 | 0.00 | 43 | 1007.9 |
| 20260508054541 | 14 | 5 | 3.2 | 4.8 | 0.00 | 0.00 | 0.00 | 43 | 1008.0 |
| 20260508053009 | 15 | 360 | 0.0 | 3.2 | 0.00 | 0.00 | 0.00 | 42 | 1008.0 |
| 20260508051542 | 15 | 20 | 1.6 | 6.4 | 0.00 | 0.00 | 0.00 | 41 | 1008.0 |
| 20260508050007 | 15 | 5 | 3.2 | 4.8 | 0.00 | 0.00 | 0.00 | 41 | 1007.9 |
| 20260508044536 | 15 | 5 | 1.6 | 4.8 | 0.00 | 0.00 | 0.00 | 41 | 1007.9 |
| 20260508043002 | 15 | 9 | 1.6 | 6.4 | 0.00 | 0.00 | 0.00 | 41 | 1007.9 |
| 20260508041536 | 15 | 12 | 0.0 | 4.8 | 0.00 | 0.00 | 0.00 | 41 | 1007.8 |
| 20260508034532 | 15 | 360 | 1.6 | 4.8 | 0.00 | 0.00 | 0.00 | 41 | 1007.7 |
| 20260508033100 | 16 | 15 | 1.6 | 4.8 | 0.00 | 0.00 | 0.00 | 41 | 1007.5 |
| 20260508031529 | 16 | 23 | 1.6 | 4.8 | 0.00 | 0.00 | 0.00 | 41 | 1007.3 |
| 20260508030059 | 16 | 26 | 1.6 | 4.8 | 0.00 | 0.00 | 0.00 | 40 | 1007.2 |
| 20260508024526 | 17 | 11 | 0.0 | 3.2 | 0.00 | 0.00 | 0.00 | 40 | 1007.2 |
| 20260508023055 | 18 | 346 | 1.6 | 3.2 | 0.00 | 0.00 | 0.00 | 37 | 1007.2 |
| 20260508021524 | 18 | 242 | 0.0 | 3.2 | 0.00 | 0.00 | 0.00 | 34 | 1007.1 |
| 20260508020100 | 18 | 234 | 0.0 | 3.2 | 0.00 | 0.00 | 0.00 | 34 | 1007.1 |
| 20260508014522 | 19 | 219 | 0.0 | 4.8 | 0.00 | 0.00 | 0.00 | 34 | 1007.2 |
| 20260508013057 | 20 | 217 | 1.6 | 4.8 | 0.00 | 0.00 | 0.00 | 33 | 1007.2 |
| 20260508011521 | 20 | 236 | 1.6 | 4.8 | 0.00 | 0.00 | 0.00 | 31 | 1007.1 |
| 20260508010051 | 20 | 191 | 1.6 | 6.4 | 0.00 | 0.00 | 0.00 | 34 | 1007.2 |
| 20260508004519 | 21 | 254 | 3.2 | 6.4 | 0.00 | 0.00 | 0.00 | 30 | 1007.3 |
| 20260508003050 | 21 | 295 | 3.2 | 8.0 | 0.00 | 0.00 | 0.00 | 30 | 1007.3 |
| 20260508001536 | 21 | 250 | 1.6 | 8.0 | 0.00 | 0.00 | 0.00 | 33 | 1007.3 |
| 20260508000049 | 21 | 228 | 1.6 | 9.7 | 0.00 | 0.00 | 0.00 | 32 | 1007.3 |
| 20260507234517 | 21 | 246 | 3.2 | 8.0 | 0.00 | 0.00 | 0.00 | 30 | 1007.7 |
| 20260507233045 | 21 | 256 | 0.0 | 6.4 | 0.00 | 0.00 | 0.00 | 32 | 1008.0 |
| 20260507231514 | 21 | 246 | 3.2 | 6.4 | 0.00 | 0.00 | 0.00 | 32 | 1008.2 |
| 20260507230044 | 21 | 201 | 0.0 | 8.0 | 0.00 | 0.00 | 0.00 | 32 | 1008.5 |
| 20260507224512 | 21 | 214 | 1.6 | 8.0 | 0.00 | 0.00 | 0.00 | 36 | 1008.8 |
| 20260507223042 | 21 | 183 | 1.6 | 6.4 | 0.00 | 0.00 | 0.00 | 34 | 1009.1 |
| 20260507221510 | 21 | 224 | 1.6 | 6.4 | 0.00 | 0.00 | 0.00 | 33 | 1009.3 |
| 20260507220044 | 18 | 205 | 0.0 | 3.2 | 0.00 | 0.00 | 0.00 | 37 | 1009.5 |
| 20260507214510 | 18 | 222 | 0.0 | 3.2 | 0.00 | 0.00 | 0.00 | 38 | 1009.7 |